Ashland, WI

1:52 AM CDT on August 26, 2016 (GMT -0500)
Kennedy Memorial

Weather History for KASX - August, 2013

Change the Weather History Date:

Sunday, August 25, 2013

  Actual Average Record
Temperature  
Mean Temperature 86 °F -  
Max Temperature 93 °F 77 °F 95 °F (1948)
Min Temperature 75 °F 54 °F 36 °F (2008)
Cooling Degree Days 20    
Growing Degree Days 36 (Base 50)    
Moisture  
Dew Point 71 °F    
Average Humidity 66    
Maximum Humidity 82    
Minimum Humidity 49    
Precipitation  
Precipitation 0.00 in - - ()
Sea Level Pressure  
Sea Level Pressure 29.92 in    
Wind  
Wind Speed 12 mph (SW)    
Max Wind Speed 20 mph    
Max Gust Speed 30 mph    
Visibility 10 miles    
Events Rain , Thunderstorm    
Averages and records for this station are not official NWS values.
T = Trace of Precipitation, MM = Missing Value Source: NWS Daily Summary

Daily Weather History Graph

Daily Weather History Graph

Search for Another Location

Airport or City:

Trip Planner

Search our weather history database for the weather conditions in past years. The results will help you decide how hot, cold, wet, or windy it might be!

Date:

Astronomy

Aug. 25, 2013 Rise Set
Actual Time 6:15 AM CDT 7:55 PM CDT
Civil Twilight 5:43 AM CDT 8:27 PM CDT
Nautical Twilight 5:04 AM CDT 9:05 PM CDT
Astronomical Twilight 4:21 AM CDT 9:47 PM CDT
Moon 10:03 PM CDT (8/25) 11:39 AM CDT (8/25)
Length of Visible Light 14h 43m
Length of Day
13h 40m
Waning Gibbous, 75% of the Moon is Illuminated
Aug 25
Waning Gibbous
Aug 28
Last Quarter
Sep 5
New
Sep 12
First Quarter
Sep 19
Full

Hourly Weather History & Observations

Time (CDT) Temp. Heat Index Dew Point Humidity Pressure Visibility Wind Dir Wind Speed Gust Speed Precip Events Conditions
12:53 AM 79.0 °F - 69.1 °F 72% 29.95 in 10.0 mi SSW 11.5 mph 19.6 mph N/A   Clear
1:53 AM 78.1 °F - 70.0 °F 76% 29.93 in 10.0 mi SSW 15.0 mph 21.9 mph N/A   Clear
2:53 AM 78.1 °F - 70.0 °F 76% 29.93 in 10.0 mi SW 11.5 mph 25.3 mph N/A   Clear
3:53 AM 78.1 °F - 70.0 °F 76% 29.91 in 10.0 mi SW 19.6 mph 29.9 mph N/A   Clear
4:53 AM 78.1 °F - 70.0 °F 76% 29.91 in 10.0 mi SW 16.1 mph 27.6 mph N/A   Clear
5:53 AM 79.0 °F - 69.1 °F 72% 29.93 in 10.0 mi SW 15.0 mph 24.2 mph N/A   Clear
6:53 AM 79.0 °F - 69.1 °F 72% 29.95 in 10.0 mi SW 17.3 mph 24.2 mph N/A   Clear
7:53 AM 80.1 °F 83.2 °F 70.0 °F 71% 29.96 in 10.0 mi SW 13.8 mph 21.9 mph N/A   Clear
8:53 AM 81.0 °F 84.4 °F 70.0 °F 69% 29.95 in 10.0 mi WSW 12.7 mph 24.2 mph N/A   Clear
9:53 AM 84.0 °F 89.6 °F 72.0 °F 67% 29.94 in 10.0 mi WSW 13.8 mph 21.9 mph N/A   Clear
10:53 AM 84.0 °F 89.6 °F 72.0 °F 67% 29.93 in 10.0 mi SSW 17.3 mph 23.0 mph N/A   Clear
11:53 AM 88.0 °F 94.7 °F 72.0 °F 59% 29.92 in 10.0 mi WSW 11.5 mph 20.7 mph N/A   Partly Cloudy
12:53 PM 91.0 °F 99.3 °F 73.0 °F 55% 29.92 in 10.0 mi WSW 6.9 mph 18.4 mph N/A   Partly Cloudy
1:53 PM 91.9 °F 99.5 °F 72.0 °F 52% 29.91 in 10.0 mi SW 12.7 mph 23.0 mph N/A   Clear
2:53 PM 93.0 °F 100.7 °F 72.0 °F 50% 29.90 in 10.0 mi WSW 13.8 mph 19.6 mph N/A   Clear
3:53 PM 93.9 °F 102.1 °F 72.0 °F 49% 29.90 in 10.0 mi WSW 8.1 mph - N/A   Clear
4:53 PM 93.9 °F 102.1 °F 72.0 °F 49% 29.89 in 10.0 mi SW 12.7 mph 18.4 mph N/A   Clear
5:53 PM 93.0 °F 100.7 °F 72.0 °F 50% 29.89 in 10.0 mi SW 8.1 mph - N/A   Clear
6:53 PM 87.1 °F 96.3 °F 75.0 °F 67% 29.90 in 10.0 mi SSW 3.5 mph - N/A   Clear
7:53 PM 82.9 °F 89.4 °F 73.9 °F 74% 29.91 in 10.0 mi Calm Calm - N/A   Clear
8:53 PM 82.0 °F 87.4 °F 73.0 °F 74% 29.92 in 10.0 mi SSW 4.6 mph - N/A   Clear
9:53 PM 84.0 °F 90.2 °F 73.0 °F 69% 29.92 in 10.0 mi SSW 8.1 mph - N/A   Mostly Cloudy
10:53 PM 84.9 °F 90.7 °F 72.0 °F 65% 29.90 in 10.0 mi SSW 10.4 mph - N/A   Mostly Cloudy
11:19 PM 84.2 °F 89.6 °F 71.6 °F 66% 29.92 in 10.0 mi SSW 8.1 mph - N/A Thunderstorm Mostly Cloudy
11:53 PM 75.9 °F - 70.0 °F 82% 29.96 in 10.0 mi NNE 19.6 mph 27.6 mph 0.00 in Rain , Thunderstorm Light Thunderstorms and Rain